HUN87P VIDP-LHBP

Flight info

Callsign HUN87P
Flight time 6h 59m
Altitude 36000
Route SURAM7G SURAM G333 MERUN L750 RANAH B449 INRAK A240 KRS B143 TUNEK A909 RODAR/N0492F380 M11 ERLEV L850 ADEKI N644 BADIR DCT NOLGA UN61 TBN UM11 CRM UL746 ODERO DCT OPT DCT IRLOX DCT EMPOS DCT KEZAL
Aircraft A359/H-SDE2E3GHIJ1J3J4J5LM1ORWXYZ/LB1D1

Departure

Time 2026-05-07 06:37
Airport Indira Gandhi International Airport (VIDP)

Arrival

Time 2026-05-07 13:37
Airport Budapest Liszt Ferenc International Airport (LHBP)
Time Latitude Longitude Altitude Speed Heading
2026-05-07 06:10 28.55544 77.08026 779 ft 0 kts 149°
2026-05-07 06:26 28.55554 77.08019 779 ft 4 kts 148°
2026-05-07 06:26 28.55577 77.08006 779 ft 4 kts 160°
2026-05-07 06:27 28.55603 77.07997 779 ft 4 kts 167°
2026-05-07 06:27 28.55618 77.07993 779 ft 1 kts 167°
2026-05-07 06:27 28.55620 77.07993 779 ft 0 kts 167°
2026-05-07 06:31 28.55618 77.07992 779 ft 1 kts 178°
2026-05-07 06:31 28.55613 77.07985 779 ft 1 kts 222°
2026-05-07 06:31 28.55614 77.07966 779 ft 5 kts 274°
2026-05-07 06:31 28.55627 77.07889 779 ft 15 kts 283°
2026-05-07 06:32 28.55635 77.07776 779 ft 13 kts 236°
2026-05-07 06:32 28.55552 77.07743 779 ft 13 kts 194°
2026-05-07 06:32 28.55444 77.07714 779 ft 17 kts 193°
2026-05-07 06:32 28.55328 77.07679 779 ft 17 kts 194°
2026-05-07 06:33 28.55215 77.07647 779 ft 14 kts 194°
2026-05-07 06:33 28.55171 77.07577 778 ft 12 kts 286°
2026-05-07 06:33 28.55193 77.07484 778 ft 13 kts 285°
2026-05-07 06:33 28.55222 77.07364 778 ft 17 kts 284°
2026-05-07 06:34 28.55253 77.07233 778 ft 17 kts 285°
2026-05-07 06:34 28.55283 77.07099 778 ft 18 kts 284°
2026-05-07 06:34 28.55312 77.06965 778 ft 16 kts 279°
2026-05-07 06:34 28.55262 77.06901 777 ft 12 kts 193°
2026-05-07 06:35 28.55176 77.06878 774 ft 14 kts 195°
2026-05-07 06:35 28.55108 77.06858 769 ft 9 kts 193°
2026-05-07 06:35 28.55042 77.06841 765 ft 7 kts 193°
2026-05-07 06:35 28.55015 77.06856 765 ft 3 kts 113°
2026-05-07 06:36 28.55014 77.06862 765 ft 0 kts 106°
2026-05-07 06:36 28.55008 77.06887 763 ft 14 kts 105°
2026-05-07 06:36 28.54936 77.07211 767 ft 70 kts 104°
2026-05-07 06:36 28.54775 77.07941 768 ft 119 kts 104°
2026-05-07 06:37 28.54543 77.09014 784 ft 159 kts 104°
2026-05-07 06:37 28.54312 77.10191 1451 ft 149 kts 104°
2026-05-07 06:37 28.54209 77.11449 1698 ft 172 kts 91°
2026-05-07 06:37 28.54130 77.12865 2059 ft 181 kts 103°
2026-05-07 06:38 28.53482 77.14016 2590 ft 179 kts 143°
2026-05-07 06:38 28.52226 77.14329 2686 ft 201 kts 186°
2026-05-07 06:38 28.50897 77.13592 2726 ft 229 kts 216°
2026-05-07 06:38 28.49617 77.12420 2907 ft 241 kts 209°
2026-05-07 06:39 28.48097 77.11535 3141 ft 251 kts 195°
2026-05-07 06:39 28.46395 77.11027 3535 ft 255 kts 188°
2026-05-07 06:39 28.44660 77.10653 4075 ft 254 kts 192°
2026-05-07 06:39 28.43040 77.09887 4704 ft 253 kts 209°
2026-05-07 06:40 28.41739 77.08531 5188 ft 259 kts 232°
2026-05-07 06:40 28.41052 77.06621 5612 ft 268 kts 259°
2026-05-07 06:40 28.41229 77.04499 6098 ft 275 kts 283°
2026-05-07 06:40 28.41829 77.02432 6625 ft 274 kts 285°
2026-05-07 06:41 28.42465 77.00405 7216 ft 271 kts 285°
2026-05-07 06:41 28.43087 76.98375 7677 ft 274 kts 287°
2026-05-07 06:41 28.43706 76.96324 8161 ft 274 kts 287°
2026-05-07 06:41 28.44315 76.94290 8791 ft 269 kts 287°
2026-05-07 06:42 28.44909 76.92283 9343 ft 269 kts 288°
2026-05-07 06:42 28.45505 76.90256 9781 ft 272 kts 288°
2026-05-07 06:42 28.46113 76.88186 10075 ft 281 kts 288°
2026-05-07 06:42 28.46744 76.86039 10245 ft 292 kts 289°
2026-05-07 06:43 28.47398 76.83812 10478 ft 302 kts 289°
2026-05-07 06:43 28.48073 76.81507 10683 ft 312 kts 289°
2026-05-07 06:43 28.48771 76.79124 10842 ft 323 kts 289°
2026-05-07 06:43 28.49489 76.76669 11018 ft 333 kts 289°
2026-05-07 06:44 28.50230 76.74137 11191 ft 342 kts 289°
2026-05-07 06:44 28.50990 76.71536 11375 ft 351 kts 289°
2026-05-07 06:44 28.51769 76.68869 11528 ft 360 kts 289°
2026-05-07 06:44 28.52553 76.66182 11766 ft 365 kts 289°
2026-05-07 06:45 28.53354 76.63432 12119 ft 367 kts 289°
2026-05-07 06:45 28.54159 76.60666 12460 ft 370 kts 289°
2026-05-07 06:45 28.54968 76.57885 12800 ft 372 kts 289°
2026-05-07 06:45 28.55782 76.55081 13174 ft 373 kts 289°
2026-05-07 06:46 28.56598 76.52273 13516 ft 376 kts 289°
2026-05-07 06:46 28.57418 76.49443 13825 ft 378 kts 289°
2026-05-07 06:46 28.58244 76.46595 14129 ft 380 kts 289°
2026-05-07 06:46 28.59072 76.43733 14440 ft 382 kts 289°
2026-05-07 06:47 28.59905 76.40858 14770 ft 383 kts 289°
2026-05-07 06:47 28.60739 76.37970 15085 ft 385 kts 289°
2026-05-07 06:47 28.61578 76.35070 15390 ft 387 kts 289°
2026-05-07 06:47 28.62420 76.32150 15708 ft 389 kts 289°
2026-05-07 06:48 28.63263 76.29227 16033 ft 390 kts 289°
2026-05-07 06:48 28.64111 76.26286 16330 ft 392 kts 289°
2026-05-07 06:48 28.64962 76.23330 16648 ft 394 kts 289°
2026-05-07 06:48 28.65814 76.20364 16966 ft 395 kts 289°
2026-05-07 06:49 28.66671 76.17380 17267 ft 397 kts 289°
2026-05-07 06:49 28.67530 76.14388 17561 ft 399 kts 289°
2026-05-07 06:49 28.68392 76.11379 17856 ft 400 kts 289°
2026-05-07 06:49 28.69257 76.08359 18149 ft 402 kts 289°
2026-05-07 06:50 28.70126 76.05326 18401 ft 404 kts 289°
2026-05-07 06:50 28.70986 76.02320 18653 ft 405 kts 289°
2026-05-07 06:50 28.71859 75.99263 18916 ft 406 kts 289°
2026-05-07 06:50 28.72734 75.96197 19187 ft 408 kts 289°
2026-05-07 06:51 28.73611 75.93122 19439 ft 409 kts 289°
2026-05-07 06:51 28.74379 75.89991 19662 ft 412 kts 284°
2026-05-07 06:51 28.74734 75.86739 19926 ft 416 kts 275°
2026-05-07 06:51 28.74712 75.83387 20176 ft 419 kts 270°
2026-05-07 06:52 28.74493 75.80068 20414 ft 422 kts 267°
2026-05-07 06:52 28.74182 75.76784 20622 ft 424 kts 266°
2026-05-07 06:52 28.73834 75.73441 20844 ft 426 kts 266°
2026-05-07 06:52 28.73487 75.70086 21095 ft 427 kts 267°
2026-05-07 06:53 28.73149 75.66675 21338 ft 428 kts 267°
2026-05-07 06:53 28.72834 75.63340 21568 ft 430 kts 267°
2026-05-07 06:53 28.72522 75.59903 21807 ft 431 kts 268°
2026-05-07 06:53 28.72219 75.56500 22041 ft 432 kts 268°
2026-05-07 06:54 28.71917 75.53087 22276 ft 434 kts 268°
2026-05-07 06:54 28.71619 75.49708 22486 ft 435 kts 268°
2026-05-07 06:54 28.71315 75.46274 22726 ft 437 kts 268°
2026-05-07 06:54 28.71008 75.42826 22947 ft 438 kts 268°
2026-05-07 06:55 28.70697 75.39364 23164 ft 439 kts 269°
2026-05-07 06:55 28.70385 75.35898 23384 ft 441 kts 269°
2026-05-07 06:55 28.70071 75.32421 23570 ft 442 kts 269°
2026-05-07 06:55 28.69755 75.28937 23771 ft 443 kts 268°
2026-05-07 06:56 28.69437 75.25445 23978 ft 443 kts 268°
2026-05-07 06:56 28.69118 75.21949 24164 ft 444 kts 268°
2026-05-07 06:56 28.68798 75.18448 24371 ft 445 kts 268°
2026-05-07 06:56 28.68476 75.14941 24564 ft 446 kts 268°
2026-05-07 06:57 28.68153 75.11427 24756 ft 447 kts 268°
2026-05-07 06:57 28.67828 75.07908 24949 ft 447 kts 268°
2026-05-07 06:57 28.67502 75.04382 25107 ft 448 kts 269°
2026-05-07 06:57 28.67174 75.00848 25295 ft 449 kts 269°
2026-05-07 06:58 28.66845 74.97310 25489 ft 450 kts 269°
2026-05-07 06:58 28.66514 74.93759 25677 ft 451 kts 269°
2026-05-07 06:58 28.66183 74.90214 25881 ft 452 kts 269°
2026-05-07 06:58 28.65850 74.86656 26069 ft 452 kts 269°
2026-05-07 06:59 28.65514 74.83086 26258 ft 453 kts 269°
2026-05-07 06:59 28.65177 74.79514 26440 ft 454 kts 269°
2026-05-07 06:59 28.64839 74.75937 26645 ft 455 kts 269°
2026-05-07 06:59 28.64499 74.72353 26841 ft 456 kts 269°
2026-05-07 07:00 28.64157 74.68764 27044 ft 457 kts 269°
2026-05-07 07:00 28.63813 74.65165 27242 ft 458 kts 268°
2026-05-07 07:00 28.63468 74.61561 27433 ft 459 kts 268°
2026-05-07 07:00 28.63122 74.57950 27626 ft 459 kts 268°
2026-05-07 07:01 28.62775 74.54333 27813 ft 460 kts 268°
2026-05-07 07:01 28.62425 74.50707 27995 ft 462 kts 268°
2026-05-07 07:01 28.62074 74.47073 28155 ft 463 kts 268°
2026-05-07 07:01 28.61720 74.43426 28335 ft 463 kts 268°
2026-05-07 07:02 28.61365 74.39780 28518 ft 464 kts 268°
2026-05-07 07:02 28.61008 74.36127 28679 ft 465 kts 268°
2026-05-07 07:02 28.60654 74.32513 28784 ft 467 kts 268°
2026-05-07 07:02 28.60293 74.28831 28922 ft 468 kts 268°
2026-05-07 07:03 28.59931 74.25150 29090 ft 469 kts 268°
2026-05-07 07:03 28.59567 74.21462 29245 ft 469 kts 268°
2026-05-07 07:03 28.59201 74.17769 29401 ft 470 kts 268°
2026-05-07 07:03 28.58834 74.14072 29550 ft 471 kts 268°
2026-05-07 07:04 28.58466 74.10373 29776 ft 470 kts 268°
2026-05-07 07:04 28.58096 74.06678 29996 ft 469 kts 268°
2026-05-07 07:04 28.57727 74.02999 30197 ft 468 kts 268°
2026-05-07 07:04 28.57358 73.99327 30368 ft 467 kts 268°
2026-05-07 07:05 28.56989 73.95649 30484 ft 469 kts 268°
2026-05-07 07:05 28.56617 73.91961 30651 ft 468 kts 268°
2026-05-07 07:05 28.56246 73.88288 30875 ft 467 kts 268°
2026-05-07 07:05 28.55873 73.84625 31102 ft 466 kts 268°
2026-05-07 07:06 28.55502 73.80972 31314 ft 465 kts 268°
2026-05-07 07:06 28.55134 73.77319 31482 ft 464 kts 269°
2026-05-07 07:06 28.54886 73.73671 31677 ft 462 kts 271°
2026-05-07 07:06 28.54744 73.70032 31889 ft 460 kts 272°
2026-05-07 07:07 28.54674 73.67625 32024 ft 459 kts 273°
2026-05-07 07:07 28.54540 73.62823 32231 ft 459 kts 273°
2026-05-07 07:07 28.54426 73.59199 32392 ft 459 kts 272°
2026-05-07 07:07 28.54294 73.55580 32587 ft 458 kts 272°
2026-05-07 07:08 28.54149 73.51967 32786 ft 457 kts 272°
2026-05-07 07:08 28.53996 73.48361 32979 ft 456 kts 272°
2026-05-07 07:08 28.53890 73.45927 33115 ft 455 kts 272°
2026-05-07 07:08 28.53733 73.42385 33302 ft 455 kts 272°
2026-05-07 07:09 28.53573 73.38793 33479 ft 454 kts 272°
2026-05-07 07:09 28.53412 73.35219 33669 ft 453 kts 272°
2026-05-07 07:09 28.53252 73.31648 33831 ft 452 kts 272°
2026-05-07 07:09 28.53091 73.28077 33949 ft 451 kts 272°
2026-05-07 07:10 28.52930 73.24515 34069 ft 451 kts 272°
2026-05-07 07:10 28.52769 73.20955 34204 ft 451 kts 272°
2026-05-07 07:10 28.52607 73.17400 34342 ft 450 kts 272°
2026-05-07 07:10 28.52444 73.13850 34491 ft 449 kts 273°
2026-05-07 07:11 28.52280 73.10302 34618 ft 448 kts 273°
2026-05-07 07:11 28.52116 73.06765 34742 ft 448 kts 273°
2026-05-07 07:11 28.51951 73.03231 34875 ft 448 kts 273°
2026-05-07 07:11 28.51786 72.99700 34985 ft 447 kts 273°
2026-05-07 07:12 28.51619 72.96169 35123 ft 447 kts 273°
2026-05-07 07:12 28.51452 72.92649 35233 ft 445 kts 273°
2026-05-07 07:12 28.51284 72.89137 35379 ft 444 kts 273°
2026-05-07 07:12 28.51116 72.85632 35500 ft 444 kts 273°
2026-05-07 07:13 28.50948 72.82132 35606 ft 444 kts 273°
2026-05-07 07:13 28.50778 72.78628 35705 ft 444 kts 273°
2026-05-07 07:13 28.50438 72.71583 35726 ft 449 kts 273°
2026-05-07 07:14 28.50088 72.64487 35719 ft 449 kts 273°
2026-05-07 07:14 28.49733 72.57398 35714 ft 449 kts 273°
2026-05-07 07:15 28.49373 72.50316 35720 ft 448 kts 273°
2026-05-07 07:15 28.49012 72.43237 35719 ft 448 kts 273°
2026-05-07 07:16 28.48666 72.36169 35714 ft 447 kts 275°
2026-05-07 07:16 28.49268 72.29244 35716 ft 436 kts 288°
2026-05-07 07:17 28.51486 72.22934 35709 ft 428 kts 303°
2026-05-07 07:17 28.55175 72.17694 35714 ft 425 kts 316°
2026-05-07 07:18 28.59559 72.13166 35710 ft 426 kts 318°
2026-05-07 07:18 28.64029 72.08742 35718 ft 426 kts 318°
2026-05-07 07:19 28.68500 72.04293 35716 ft 427 kts 318°
2026-05-07 07:19 28.72923 71.99850 35716 ft 427 kts 317°
2026-05-07 07:20 28.77367 71.95364 35716 ft 427 kts 317°
2026-05-07 07:20 28.81813 71.90869 35694 ft 427 kts 317°
2026-05-07 07:21 28.86251 71.86379 35720 ft 426 kts 317°
2026-05-07 07:21 28.90682 71.81891 35716 ft 426 kts 317°
2026-05-07 07:22 28.95117 71.77393 35722 ft 427 kts 317°
2026-05-07 07:22 28.99552 71.72891 35721 ft 427 kts 317°
2026-05-07 07:23 29.03984 71.68386 35724 ft 427 kts 317°
2026-05-07 07:23 29.08418 71.63874 35724 ft 427 kts 317°
2026-05-07 07:24 29.12848 71.59360 35732 ft 427 kts 317°
2026-05-07 07:24 29.17283 71.54836 35710 ft 427 kts 317°
2026-05-07 07:25 29.23930 71.48046 35730 ft 426 kts 317°
2026-05-07 07:26 29.28350 71.43523 35733 ft 426 kts 317°
2026-05-07 07:26 29.32778 71.39012 35735 ft 426 kts 317°
2026-05-07 07:27 29.37222 71.34510 35733 ft 427 kts 317°
2026-05-07 07:27 29.41676 71.29993 35738 ft 427 kts 317°
2026-05-07 07:28 29.46127 71.25470 35738 ft 427 kts 317°
2026-05-07 07:28 29.50578 71.20938 35738 ft 427 kts 317°
2026-05-07 07:29 29.55024 71.16407 35740 ft 427 kts 317°
2026-05-07 07:29 29.59467 71.11874 35754 ft 428 kts 317°
2026-05-07 07:30 29.63921 71.07324 35743 ft 428 kts 317°
2026-05-07 07:30 29.68343 71.02801 35744 ft 428 kts 317°
2026-05-07 07:31 29.72911 70.98399 35742 ft 429 kts 320°
2026-05-07 07:31 29.77579 70.94115 35741 ft 429 kts 320°
2026-05-07 07:32 29.82231 70.89817 35744 ft 429 kts 320°
2026-05-07 07:32 29.86863 70.85487 35742 ft 428 kts 319°
2026-05-07 07:33 29.91478 70.81150 35749 ft 428 kts 319°
2026-05-07 07:33 29.96087 70.76810 35749 ft 428 kts 319°
2026-05-07 07:34 30.00697 70.72467 35752 ft 428 kts 319°
2026-05-07 07:34 30.05302 70.68124 35752 ft 428 kts 319°
2026-05-07 07:35 30.09912 70.63772 35759 ft 429 kts 319°
2026-05-07 07:35 30.14531 70.59406 35763 ft 429 kts 319°
2026-05-07 07:36 30.19150 70.55033 35765 ft 429 kts 319°
2026-05-07 07:36 30.23773 70.50658 35765 ft 429 kts 319°
2026-05-07 07:37 30.28425 70.46356 35790 ft 428 kts 320°
2026-05-07 07:37 30.33094 70.42073 35792 ft 429 kts 320°
2026-05-07 07:38 30.37763 70.37766 35798 ft 429 kts 320°
2026-05-07 07:38 30.42397 70.33477 35818 ft 429 kts 320°
2026-05-07 07:39 30.47090 70.29127 35823 ft 429 kts 320°
2026-05-07 07:39 30.51750 70.24801 35823 ft 429 kts 320°
2026-05-07 07:40 30.56384 70.20492 35827 ft 430 kts 320°
2026-05-07 07:40 30.61053 70.16147 35837 ft 430 kts 320°
2026-05-07 07:41 30.65726 70.11790 35846 ft 432 kts 320°
2026-05-07 07:41 30.70420 70.07410 35847 ft 434 kts 320°
2026-05-07 07:42 30.75116 70.03022 35857 ft 432 kts 320°
2026-05-07 07:42 30.79799 69.98639 35858 ft 432 kts 320°
2026-05-07 07:43 30.84479 69.94256 35861 ft 432 kts 320°
2026-05-07 07:43 30.89153 69.89873 35862 ft 432 kts 320°
2026-05-07 07:44 30.93825 69.85486 35853 ft 431 kts 319°
2026-05-07 07:44 30.98493 69.81096 35865 ft 431 kts 319°
2026-05-07 07:45 31.03167 69.76698 35862 ft 432 kts 319°
2026-05-07 07:45 31.07847 69.72285 35861 ft 432 kts 319°
2026-05-07 07:46 31.12520 69.67872 35863 ft 432 kts 319°
2026-05-07 07:46 31.17197 69.63451 35847 ft 432 kts 319°
2026-05-07 07:47 31.21868 69.59027 35847 ft 432 kts 319°
2026-05-07 07:47 31.26548 69.54591 35852 ft 434 kts 319°
2026-05-07 07:48 31.31230 69.50148 35832 ft 433 kts 319°
2026-05-07 07:48 31.35744 69.45497 35837 ft 431 kts 312°
2026-05-07 07:49 31.39614 69.40134 35838 ft 431 kts 309°
2026-05-07 07:49 31.43348 69.34643 35834 ft 431 kts 308°
2026-05-07 07:50 31.47036 69.29158 35837 ft 432 kts 308°
2026-05-07 07:50 31.50756 69.23632 35842 ft 432 kts 308°
2026-05-07 07:51 31.54506 69.18074 35841 ft 432 kts 308°
2026-05-07 07:51 31.58199 69.12603 35852 ft 430 kts 308°
2026-05-07 07:52 31.61911 69.07105 35853 ft 430 kts 308°
2026-05-07 07:52 31.65619 69.01586 35851 ft 430 kts 308°
2026-05-07 07:53 31.69376 68.96116 35858 ft 432 kts 309°
2026-05-07 07:53 31.73268 68.90713 35871 ft 433 kts 310°
2026-05-07 07:54 31.77162 68.85316 35844 ft 432 kts 309°
2026-05-07 07:54 31.81034 68.79909 35868 ft 432 kts 309°
2026-05-07 07:55 31.84245 68.75407 35862 ft 432 kts 309°
2026-05-07 07:55 31.88101 68.69986 35878 ft 433 kts 309°
2026-05-07 07:56 31.91959 68.64553 35878 ft 433 kts 309°
2026-05-07 07:56 31.95822 68.59109 35891 ft 433 kts 309°
2026-05-07 07:57 31.99681 68.53660 35883 ft 433 kts 309°
2026-05-07 07:57 32.03541 68.48206 35891 ft 433 kts 309°
2026-05-07 07:58 32.07394 68.42754 35899 ft 432 kts 309°
2026-05-07 07:58 32.11240 68.37300 35898 ft 432 kts 309°
2026-05-07 07:59 32.15081 68.31845 35905 ft 432 kts 309°
2026-05-07 07:59 32.18925 68.26379 35906 ft 433 kts 309°
2026-05-07 08:00 32.22766 68.20910 35908 ft 433 kts 309°
2026-05-07 08:00 32.26605 68.15440 35911 ft 432 kts 309°
2026-05-07 08:01 32.30411 68.10005 35905 ft 432 kts 309°
2026-05-07 08:01 32.34241 68.04524 35897 ft 433 kts 309°
2026-05-07 08:02 32.38075 67.99032 35897 ft 433 kts 309°
2026-05-07 08:02 32.41905 67.93538 35893 ft 433 kts 309°
2026-05-07 08:03 32.45733 67.88039 35889 ft 433 kts 309°
2026-05-07 08:03 32.49567 67.82524 35892 ft 435 kts 309°
2026-05-07 08:04 32.53491 67.77051 35889 ft 436 kts 310°
2026-05-07 08:04 32.57547 67.71701 35882 ft 436 kts 311°
2026-05-07 08:05 32.61604 67.66346 35878 ft 436 kts 311°
2026-05-07 08:05 32.65633 67.60971 35879 ft 436 kts 310°
2026-05-07 08:06 32.69659 67.55567 35884 ft 438 kts 310°
2026-05-07 08:06 32.73692 67.50143 35882 ft 438 kts 310°
2026-05-07 08:07 32.77724 67.44715 35890 ft 438 kts 310°
2026-05-07 08:07 32.81673 67.39207 35899 ft 438 kts 308°
2026-05-07 08:08 32.85507 67.33654 35914 ft 437 kts 308°
2026-05-07 08:08 32.89376 67.28060 35927 ft 439 kts 308°
2026-05-07 08:09 32.93271 67.22459 35939 ft 439 kts 309°
2026-05-07 08:09 32.97165 67.16879 35945 ft 438 kts 308°
2026-05-07 08:10 33.01050 67.11299 35984 ft 437 kts 307°
2026-05-07 08:10 33.04928 67.05726 35983 ft 436 kts 308°
2026-05-07 08:11 33.08807 67.00152 35997 ft 436 kts 308°
2026-05-07 08:11 33.12671 66.94568 36001 ft 436 kts 308°
2026-05-07 08:12 33.16524 66.88987 36004 ft 436 kts 308°
2026-05-07 08:12 33.20372 66.83414 36012 ft 435 kts 308°
2026-05-07 08:13 33.24214 66.77846 36013 ft 434 kts 308°
2026-05-07 08:13 33.28054 66.72268 35994 ft 436 kts 308°
2026-05-07 08:14 33.31880 66.66702 36007 ft 437 kts 308°
2026-05-07 08:14 33.35734 66.61092 35976 ft 436 kts 308°
2026-05-07 08:15 33.39579 66.55500 35990 ft 435 kts 308°
2026-05-07 08:15 33.43414 66.49870 35958 ft 437 kts 308°
2026-05-07 08:16 33.47276 66.44235 35958 ft 438 kts 308°
2026-05-07 08:16 33.51131 66.38575 35960 ft 438 kts 308°
2026-05-07 08:17 33.54964 66.32904 35959 ft 437 kts 308°
2026-05-07 08:17 33.58794 66.27236 35970 ft 438 kts 308°
2026-05-07 08:18 33.62626 66.21560 35983 ft 437 kts 308°
2026-05-07 08:18 33.66458 66.15881 35982 ft 439 kts 308°
2026-05-07 08:19 33.70298 66.10186 35980 ft 438 kts 307°
2026-05-07 08:19 33.74127 66.04492 35994 ft 438 kts 307°
2026-05-07 08:20 33.77934 65.98827 35999 ft 439 kts 307°
2026-05-07 08:20 33.81776 65.93101 36018 ft 440 kts 307°
2026-05-07 08:21 33.85611 65.87376 36019 ft 439 kts 307°
2026-05-07 08:21 33.89435 65.81655 36015 ft 438 kts 307°
2026-05-07 08:22 33.93255 65.75937 36019 ft 438 kts 307°
2026-05-07 08:22 33.97072 65.70209 36028 ft 438 kts 307°
2026-05-07 08:23 34.00881 65.64481 36025 ft 438 kts 307°
2026-05-07 08:23 34.04687 65.58752 36044 ft 438 kts 307°
2026-05-07 08:24 34.08496 65.53021 36039 ft 438 kts 307°
2026-05-07 08:24 34.12297 65.47308 36052 ft 438 kts 307°
2026-05-07 08:25 34.16096 65.41567 36051 ft 437 kts 307°
2026-05-07 08:25 34.19891 65.35832 36064 ft 438 kts 307°
2026-05-07 08:26 34.25596 65.27197 36056 ft 438 kts 307°
2026-05-07 08:26 34.29370 65.21471 36054 ft 438 kts 307°
2026-05-07 08:27 34.33162 65.15708 36050 ft 437 kts 307°
2026-05-07 08:27 34.36940 65.09940 36056 ft 438 kts 306°
2026-05-07 08:28 34.40742 65.04149 36053 ft 440 kts 306°
2026-05-07 08:28 34.44549 64.98343 36053 ft 440 kts 306°
2026-05-07 08:29 34.48351 64.92537 36058 ft 439 kts 306°
2026-05-07 08:29 34.52137 64.86739 36059 ft 439 kts 306°
2026-05-07 08:30 34.55922 64.80919 36065 ft 439 kts 306°
2026-05-07 08:30 34.59698 64.75100 36065 ft 439 kts 306°
2026-05-07 08:31 34.63478 64.69267 36065 ft 440 kts 306°
2026-05-07 08:31 34.67261 64.63428 36053 ft 440 kts 306°
2026-05-07 08:32 34.71036 64.57579 36073 ft 440 kts 306°
2026-05-07 08:32 34.74813 64.51716 36061 ft 441 kts 306°
2026-05-07 08:33 34.78591 64.45847 36054 ft 441 kts 306°
2026-05-07 08:33 34.82371 64.39961 36045 ft 441 kts 306°
2026-05-07 08:34 34.86137 64.34081 36050 ft 440 kts 306°
2026-05-07 08:34 34.89906 64.28193 36024 ft 441 kts 306°
2026-05-07 08:35 34.93686 64.22297 36016 ft 442 kts 306°
2026-05-07 08:35 34.97463 64.16389 35996 ft 441 kts 306°
2026-05-07 08:36 35.01207 64.10520 35976 ft 441 kts 306°
2026-05-07 08:36 35.04967 64.04611 35987 ft 441 kts 305°
2026-05-07 08:37 35.08717 63.98706 35972 ft 440 kts 305°
2026-05-07 08:37 35.12476 63.92779 35968 ft 441 kts 305°
2026-05-07 08:38 35.16229 63.86852 35976 ft 441 kts 305°
2026-05-07 08:38 35.19975 63.80924 35958 ft 440 kts 305°
2026-05-07 08:39 35.23720 63.74989 35967 ft 441 kts 305°
2026-05-07 08:39 35.27456 63.69048 35958 ft 440 kts 305°
2026-05-07 08:40 35.31191 63.63119 35952 ft 440 kts 305°
2026-05-07 08:40 35.34933 63.57200 35941 ft 440 kts 305°
2026-05-07 08:41 35.38677 63.51272 35960 ft 440 kts 304°
2026-05-07 08:41 35.42416 63.45336 35934 ft 440 kts 304°
2026-05-07 08:42 35.46150 63.39392 35935 ft 439 kts 304°
2026-05-07 08:42 35.49868 63.33454 35923 ft 439 kts 304°
2026-05-07 08:43 35.53589 63.27517 35927 ft 439 kts 304°
2026-05-07 08:43 35.57310 63.21574 35912 ft 439 kts 304°
2026-05-07 08:44 35.61026 63.15606 35924 ft 440 kts 304°
2026-05-07 08:44 35.64703 63.09603 35924 ft 440 kts 303°
2026-05-07 08:45 35.67753 63.04604 35914 ft 439 kts 303°
2026-05-07 08:45 35.71421 62.98593 35913 ft 439 kts 303°
2026-05-07 08:46 35.75090 62.92582 35915 ft 439 kts 303°
2026-05-07 08:46 35.78762 62.86561 35917 ft 439 kts 303°
2026-05-07 08:47 35.82431 62.80532 35913 ft 440 kts 303°
2026-05-07 08:47 35.86098 62.74494 35921 ft 440 kts 303°
2026-05-07 08:48 35.89768 62.68444 35922 ft 441 kts 303°
2026-05-07 08:48 35.93444 62.62373 35910 ft 442 kts 303°
2026-05-07 08:49 35.97119 62.56295 35911 ft 442 kts 303°
2026-05-07 08:49 36.00770 62.50244 35922 ft 442 kts 303°
2026-05-07 08:50 36.04458 62.44120 35923 ft 442 kts 303°
2026-05-07 08:50 36.08122 62.38024 35924 ft 442 kts 303°
2026-05-07 08:51 36.11760 62.31962 35925 ft 442 kts 303°
2026-05-07 08:51 36.15421 62.25850 35931 ft 442 kts 303°
2026-05-07 08:52 36.19076 62.19738 35935 ft 442 kts 302°
2026-05-07 08:52 36.22728 62.13619 35934 ft 442 kts 302°
2026-05-07 08:53 36.26382 62.07487 35931 ft 442 kts 302°
2026-05-07 08:53 36.30027 62.01358 35941 ft 442 kts 302°
2026-05-07 08:54 36.33675 61.95214 35962 ft 442 kts 302°
2026-05-07 08:54 36.37321 61.89061 35941 ft 443 kts 302°
2026-05-07 08:55 36.40966 61.82900 35944 ft 443 kts 302°
2026-05-07 08:55 36.44606 61.76737 35942 ft 443 kts 302°
2026-05-07 08:56 36.48245 61.70562 35937 ft 443 kts 302°
2026-05-07 08:56 36.51878 61.64387 35944 ft 443 kts 302°
2026-05-07 08:57 36.55517 61.58190 35944 ft 443 kts 302°
2026-05-07 08:57 36.59151 61.51991 35949 ft 443 kts 302°
2026-05-07 08:58 36.62782 61.45788 35946 ft 443 kts 302°
2026-05-07 08:58 36.66377 61.39545 35953 ft 444 kts 301°
2026-05-07 08:59 36.69937 61.33248 35964 ft 445 kts 301°
2026-05-07 08:59 36.73495 61.26958 35960 ft 443 kts 301°
2026-05-07 09:00 36.77050 61.20680 35971 ft 443 kts 301°
2026-05-07 09:00 36.80580 61.14444 35973 ft 444 kts 301°
2026-05-07 09:01 36.84144 61.08135 35976 ft 445 kts 301°
2026-05-07 09:01 36.87705 61.01820 35978 ft 445 kts 301°
2026-05-07 09:02 36.91255 60.95515 35982 ft 443 kts 301°
2026-05-07 09:02 36.94801 60.89202 35992 ft 444 kts 301°
2026-05-07 09:03 36.98364 60.82855 35990 ft 447 kts 301°
2026-05-07 09:03 37.02157 60.76670 35985 ft 449 kts 304°
2026-05-07 09:04 37.06065 60.70581 35987 ft 448 kts 304°
2026-05-07 09:04 37.09934 60.64476 35990 ft 448 kts 304°
2026-05-07 09:05 37.13786 60.58309 35991 ft 450 kts 303°
2026-05-07 09:05 37.17630 60.52121 35996 ft 450 kts 303°
2026-05-07 09:06 37.21472 60.45925 35977 ft 450 kts 303°
2026-05-07 09:06 37.25307 60.39732 35994 ft 449 kts 303°
2026-05-07 09:07 37.29115 60.33573 35995 ft 449 kts 303°
2026-05-07 09:07 37.32939 60.27375 35981 ft 449 kts 303°
2026-05-07 09:08 37.36760 60.21170 35999 ft 449 kts 303°
2026-05-07 09:08 37.40582 60.14952 35996 ft 450 kts 303°
2026-05-07 09:09 37.44403 60.08725 35988 ft 450 kts 303°
2026-05-07 09:09 37.48220 60.02493 35999 ft 449 kts 303°
2026-05-07 09:10 37.52031 59.96258 36005 ft 450 kts 303°
2026-05-07 09:10 37.55844 59.90008 35990 ft 450 kts 303°
2026-05-07 09:11 37.59654 59.83753 35991 ft 450 kts 303°
2026-05-07 09:11 37.63463 59.77486 35988 ft 450 kts 303°
2026-05-07 09:12 37.67265 59.71218 35993 ft 450 kts 302°
2026-05-07 09:12 37.71075 59.64927 35990 ft 451 kts 302°
2026-05-07 09:13 37.74880 59.58630 35989 ft 451 kts 302°
2026-05-07 09:13 37.78685 59.52323 35989 ft 451 kts 302°
2026-05-07 09:14 37.82489 59.46005 35985 ft 452 kts 302°
2026-05-07 09:14 37.86299 59.39665 35985 ft 452 kts 302°
2026-05-07 09:15 37.89935 59.33200 35988 ft 449 kts 298°
2026-05-07 09:15 37.93247 59.26495 35998 ft 449 kts 297°
2026-05-07 09:16 37.96501 59.19746 35990 ft 449 kts 296°
2026-05-07 09:16 37.99745 59.12986 35993 ft 449 kts 296°
2026-05-07 09:17 38.02995 59.06219 35993 ft 449 kts 296°
2026-05-07 09:17 38.06244 58.99449 36010 ft 449 kts 296°
2026-05-07 09:18 38.09470 58.92713 35987 ft 450 kts 296°
2026-05-07 09:18 38.12717 58.85920 36001 ft 450 kts 296°
2026-05-07 09:19 38.15958 58.79125 36003 ft 450 kts 296°
2026-05-07 09:19 38.19198 58.72317 35991 ft 450 kts 296°
2026-05-07 09:20 38.22437 58.65496 36000 ft 451 kts 296°
2026-05-07 09:20 38.25676 58.58662 36001 ft 451 kts 296°
2026-05-07 09:21 38.28913 58.51819 35999 ft 451 kts 296°
2026-05-07 09:21 38.32148 58.44965 36011 ft 451 kts 296°
2026-05-07 09:22 38.35377 58.38107 36001 ft 452 kts 296°
2026-05-07 09:22 38.38605 58.31238 36004 ft 452 kts 296°
2026-05-07 09:23 38.41451 58.24156 36010 ft 448 kts 290°
2026-05-07 09:23 38.44045 58.16939 36014 ft 447 kts 289°
2026-05-07 09:24 38.46594 58.09698 36010 ft 447 kts 289°
2026-05-07 09:24 38.49139 58.02452 36015 ft 447 kts 289°
2026-05-07 09:25 38.51687 57.95200 36015 ft 447 kts 289°
2026-05-07 09:25 38.54232 57.87954 36018 ft 446 kts 289°
2026-05-07 09:26 38.56747 57.80775 36018 ft 446 kts 289°
2026-05-07 09:26 38.59273 57.73544 36018 ft 446 kts 289°
2026-05-07 09:27 38.61794 57.66310 36023 ft 445 kts 289°
2026-05-07 09:28 38.65098 57.55282 36027 ft 441 kts 284°
2026-05-07 09:28 38.67114 57.47873 36030 ft 441 kts 284°
2026-05-07 09:29 38.69180 57.40465 36028 ft 442 kts 285°
2026-05-07 09:29 38.71275 57.33076 36034 ft 442 kts 285°
2026-05-07 09:30 38.73376 57.25683 36052 ft 441 kts 285°
2026-05-07 09:30 38.75468 57.18296 36040 ft 441 kts 285°
2026-05-07 09:31 38.77554 57.10897 36044 ft 441 kts 285°
2026-05-07 09:31 38.79634 57.03501 36045 ft 441 kts 285°
2026-05-07 09:32 38.81709 56.96098 36040 ft 441 kts 285°
2026-05-07 09:32 38.83429 56.89948 36041 ft 441 kts 284°
2026-05-07 09:33 38.85496 56.82535 36053 ft 441 kts 284°
2026-05-07 09:33 38.87555 56.75137 36045 ft 440 kts 284°
2026-05-07 09:34 38.89604 56.67750 36052 ft 440 kts 284°
2026-05-07 09:34 38.91649 56.60352 36072 ft 440 kts 284°
2026-05-07 09:35 38.93690 56.52952 36064 ft 439 kts 284°
2026-05-07 09:35 38.95725 56.45554 36066 ft 439 kts 284°
2026-05-07 09:36 38.97752 56.38159 36070 ft 439 kts 284°
2026-05-07 09:36 38.99805 56.30821 36076 ft 441 kts 287°
2026-05-07 09:37 39.02449 56.23609 36076 ft 444 kts 290°
2026-05-07 09:37 39.05213 56.16490 36070 ft 445 kts 290°
2026-05-07 09:38 39.07979 56.09424 36067 ft 445 kts 290°
2026-05-07 09:38 39.10753 56.02301 36091 ft 445 kts 290°
2026-05-07 09:39 39.13514 55.95175 36075 ft 445 kts 290°
2026-05-07 09:39 39.16270 55.88034 36076 ft 445 kts 290°
2026-05-07 09:40 39.19024 55.80884 36078 ft 445 kts 290°
2026-05-07 09:40 39.21770 55.73738 36071 ft 445 kts 290°
2026-05-07 09:41 39.24510 55.66593 36072 ft 445 kts 290°
2026-05-07 09:41 39.27247 55.59437 36070 ft 445 kts 290°
2026-05-07 09:42 39.29888 55.52240 36078 ft 442 kts 287°
2026-05-07 09:42 39.32122 55.44870 36070 ft 441 kts 284°
2026-05-07 09:43 39.34298 55.37461 36070 ft 441 kts 285°
2026-05-07 09:43 39.36528 55.30071 36070 ft 442 kts 285°
2026-05-07 09:44 39.38789 55.22693 36068 ft 442 kts 285°
2026-05-07 09:44 39.41043 55.15352 36064 ft 442 kts 285°
2026-05-07 09:45 39.43307 55.07953 36067 ft 442 kts 285°
2026-05-07 09:45 39.45564 55.00548 36066 ft 442 kts 285°
2026-05-07 09:46 39.47814 54.93142 36065 ft 442 kts 285°
2026-05-07 09:46 39.50062 54.85725 36069 ft 442 kts 285°
2026-05-07 09:47 39.52302 54.78311 36071 ft 442 kts 285°
2026-05-07 09:47 39.54539 54.70889 36072 ft 442 kts 285°
2026-05-07 09:48 39.56767 54.63450 36075 ft 443 kts 285°
2026-05-07 09:48 39.58999 54.56015 36067 ft 442 kts 285°
2026-05-07 09:49 39.61221 54.48596 36074 ft 441 kts 285°
2026-05-07 09:49 39.63423 54.41209 36071 ft 441 kts 284°
2026-05-07 09:50 39.65642 54.33742 36075 ft 441 kts 285°
2026-05-07 09:50 39.67825 54.26376 36080 ft 440 kts 284°
2026-05-07 09:51 39.70017 54.18961 36077 ft 440 kts 284°
2026-05-07 09:51 39.72204 54.11540 36080 ft 440 kts 284°
2026-05-07 09:52 39.74385 54.04119 36082 ft 440 kts 284°
2026-05-07 09:52 39.76560 53.96701 36085 ft 439 kts 284°
2026-05-07 09:53 39.78727 53.89288 36088 ft 439 kts 284°
2026-05-07 09:53 39.80891 53.81864 36089 ft 439 kts 284°
2026-05-07 09:54 39.83047 53.74444 36093 ft 439 kts 284°
2026-05-07 09:54 39.85199 53.67020 36104 ft 439 kts 284°
2026-05-07 09:55 39.87348 53.59585 36103 ft 439 kts 284°
2026-05-07 09:55 39.89493 53.52140 36106 ft 439 kts 284°
2026-05-07 09:56 39.91632 53.44699 36104 ft 439 kts 284°
2026-05-07 09:56 39.93768 53.37247 36114 ft 439 kts 284°
2026-05-07 09:57 39.95896 53.29798 36122 ft 439 kts 284°
2026-05-07 09:57 39.98020 53.22342 36122 ft 439 kts 284°
2026-05-07 09:58 40.00140 53.14882 36130 ft 438 kts 284°
2026-05-07 09:58 40.02254 53.07422 36132 ft 438 kts 283°
2026-05-07 09:59 40.04738 53.00101 36130 ft 448 kts 293°
2026-05-07 09:59 40.08148 52.93234 36121 ft 452 kts 296°
2026-05-07 10:00 40.11726 52.86469 36142 ft 453 kts 297°
2026-05-07 10:00 40.15325 52.79705 36129 ft 453 kts 297°
2026-05-07 10:01 40.18905 52.72926 36125 ft 453 kts 296°
2026-05-07 10:01 40.22448 52.66177 36123 ft 453 kts 296°
2026-05-07 10:02 40.25727 52.59205 36127 ft 445 kts 288°
2026-05-07 10:02 40.27708 52.51664 36126 ft 436 kts 279°
2026-05-07 10:03 40.29219 52.43991 36126 ft 435 kts 278°
2026-05-07 10:03 40.30649 52.36297 36128 ft 435 kts 277°
2026-05-07 10:04 40.32084 52.28605 36132 ft 435 kts 278°
2026-05-07 10:04 40.33533 52.20894 36127 ft 436 kts 278°
2026-05-07 10:05 40.34983 52.13188 36131 ft 436 kts 278°
2026-05-07 10:05 40.36431 52.05469 36150 ft 435 kts 278°
2026-05-07 10:05 40.37150 52.01621 36388 ft 433 kts 278°
2026-05-07 10:06 40.37865 51.97796 36622 ft 432 kts 278°
2026-05-07 10:06 40.38576 51.93970 36782 ft 432 kts 278°
2026-05-07 10:06 40.39286 51.90143 36925 ft 432 kts 278°
2026-05-07 10:06 40.39995 51.86313 37065 ft 432 kts 278°
2026-05-07 10:07 40.40703 51.82479 37204 ft 432 kts 278°
2026-05-07 10:07 40.41411 51.78641 37320 ft 433 kts 278°
2026-05-07 10:07 40.42117 51.74804 37464 ft 433 kts 277°
2026-05-07 10:07 40.42814 51.71010 37584 ft 433 kts 277°
2026-05-07 10:08 40.43519 51.67168 37698 ft 434 kts 277°
2026-05-07 10:08 40.44224 51.63315 37839 ft 434 kts 277°
2026-05-07 10:08 40.44929 51.59455 37898 ft 435 kts 277°
2026-05-07 10:09 40.46328 51.51715 38105 ft 435 kts 276°
2026-05-07 10:09 40.47246 51.43870 38128 ft 436 kts 272°
2026-05-07 10:10 40.48005 51.35951 38134 ft 437 kts 272°
2026-05-07 10:10 40.48733 51.28026 38129 ft 437 kts 272°
2026-05-07 10:11 40.49459 51.20102 38121 ft 437 kts 271°
2026-05-07 10:11 40.50186 51.12169 38135 ft 437 kts 271°
2026-05-07 10:12 40.50910 51.04239 38131 ft 437 kts 271°
2026-05-07 10:12 40.51629 50.96303 38116 ft 437 kts 271°
2026-05-07 10:13 40.52385 50.88371 38130 ft 438 kts 273°
2026-05-07 10:13 40.53438 50.80465 38130 ft 440 kts 275°
2026-05-07 10:14 40.54555 50.72538 38120 ft 442 kts 275°
2026-05-07 10:14 40.55630 50.64588 38118 ft 441 kts 274°
2026-05-07 10:15 40.56671 50.56631 38114 ft 441 kts 274°
2026-05-07 10:15 40.57697 50.48681 38110 ft 441 kts 274°
2026-05-07 10:16 40.58711 50.40774 38114 ft 441 kts 274°
2026-05-07 10:16 40.59729 50.32805 38100 ft 442 kts 274°
2026-05-07 10:17 40.60744 50.24822 38102 ft 442 kts 274°
2026-05-07 10:17 40.61755 50.16836 38109 ft 442 kts 274°
2026-05-07 10:18 40.62760 50.08841 38101 ft 443 kts 274°
2026-05-07 10:18 40.63759 50.00846 38104 ft 443 kts 274°
2026-05-07 10:19 40.64755 49.92826 38100 ft 444 kts 274°
2026-05-07 10:19 40.65746 49.84802 38099 ft 444 kts 274°
2026-05-07 10:20 40.66733 49.76770 38098 ft 444 kts 274°
2026-05-07 10:20 40.67714 49.68735 38097 ft 444 kts 274°
2026-05-07 10:21 40.68689 49.60697 38097 ft 445 kts 274°
2026-05-07 10:21 40.69660 49.52650 38095 ft 445 kts 274°
2026-05-07 10:22 40.70464 49.45947 38093 ft 445 kts 274°
2026-05-07 10:22 40.71421 49.37890 38093 ft 444 kts 274°
2026-05-07 10:23 40.72525 49.28530 38094 ft 445 kts 274°
2026-05-07 10:23 40.73676 49.21824 38109 ft 451 kts 281°
2026-05-07 10:24 40.75556 49.13906 38093 ft 454 kts 282°
2026-05-07 10:24 40.77530 49.06000 38099 ft 453 kts 282°
2026-05-07 10:25 40.79502 48.98103 38107 ft 454 kts 282°
2026-05-07 10:25 40.81445 48.90245 38097 ft 453 kts 282°
2026-05-07 10:26 40.83391 48.82314 38100 ft 454 kts 282°
2026-05-07 10:26 40.85333 48.74371 38103 ft 455 kts 282°
2026-05-07 10:27 40.87270 48.66426 38110 ft 454 kts 282°
2026-05-07 10:27 40.89201 48.58476 38119 ft 454 kts 282°
2026-05-07 10:28 40.91132 48.50506 38113 ft 455 kts 282°
2026-05-07 10:28 40.93054 48.42530 38122 ft 455 kts 282°
2026-05-07 10:29 40.94975 48.34550 38122 ft 455 kts 282°
2026-05-07 10:29 40.96888 48.26564 38119 ft 455 kts 282°
2026-05-07 10:30 40.99743 48.14580 38126 ft 455 kts 282°
2026-05-07 10:30 41.01646 48.06584 38132 ft 455 kts 282°
2026-05-07 10:31 41.03543 47.98581 38131 ft 456 kts 282°
2026-05-07 10:31 41.05436 47.90563 38132 ft 457 kts 282°
2026-05-07 10:32 41.07273 47.82507 38135 ft 456 kts 281°
2026-05-07 10:32 41.08976 47.74414 38131 ft 456 kts 280°
2026-05-07 10:33 41.10670 47.66323 38131 ft 455 kts 281°
2026-05-07 10:33 41.12365 47.58272 38131 ft 457 kts 281°
2026-05-07 10:34 41.14082 47.50149 38132 ft 457 kts 281°
2026-05-07 10:34 41.15806 47.41985 38145 ft 457 kts 281°
2026-05-07 10:35 41.17503 47.33914 38151 ft 458 kts 281°
2026-05-07 10:35 41.19205 47.25772 38155 ft 458 kts 281°
2026-05-07 10:36 41.20902 47.17607 38156 ft 459 kts 281°
2026-05-07 10:36 41.22599 47.09431 38158 ft 459 kts 281°
2026-05-07 10:37 41.24292 47.01254 38167 ft 459 kts 281°
2026-05-07 10:37 41.25977 46.93073 38159 ft 460 kts 281°
2026-05-07 10:38 41.27662 46.84855 38162 ft 462 kts 281°
2026-05-07 10:38 41.29346 46.76608 38161 ft 462 kts 281°
2026-05-07 10:39 41.30837 46.68327 38162 ft 459 kts 276°
2026-05-07 10:39 41.31918 46.59977 38189 ft 458 kts 275°
2026-05-07 10:40 41.32983 46.51607 38161 ft 460 kts 276°
2026-05-07 10:40 41.34112 46.43211 38157 ft 461 kts 276°
2026-05-07 10:41 41.35270 46.34819 38146 ft 461 kts 276°
2026-05-07 10:41 41.36427 46.26426 38149 ft 461 kts 276°
2026-05-07 10:42 41.37575 46.18025 38147 ft 462 kts 276°
2026-05-07 10:42 41.38719 46.09592 38145 ft 463 kts 276°
2026-05-07 10:43 41.39852 46.01189 38140 ft 464 kts 276°
2026-05-07 10:43 41.40987 45.92725 38141 ft 464 kts 276°
2026-05-07 10:44 41.42117 45.84254 38149 ft 464 kts 276°
2026-05-07 10:44 41.43243 45.75763 38132 ft 466 kts 276°
2026-05-07 10:45 41.44363 45.67268 38132 ft 466 kts 276°
2026-05-07 10:45 41.45478 45.58759 38123 ft 466 kts 276°
2026-05-07 10:46 41.46585 45.50260 38127 ft 465 kts 276°
2026-05-07 10:46 41.47686 45.41752 38128 ft 466 kts 276°
2026-05-07 10:47 41.48252 45.33177 38122 ft 463 kts 268°
2026-05-07 10:47 41.48217 45.24581 38122 ft 463 kts 266°
2026-05-07 10:48 41.48081 45.16001 38119 ft 463 kts 266°
2026-05-07 10:48 41.47933 45.07416 38119 ft 463 kts 266°
2026-05-07 10:49 41.47791 44.98892 38118 ft 463 kts 266°
2026-05-07 10:49 41.47650 44.90311 38124 ft 463 kts 266°
2026-05-07 10:50 41.47504 44.81735 38120 ft 462 kts 266°
2026-05-07 10:50 41.47351 44.73160 38121 ft 462 kts 266°
2026-05-07 10:51 41.47190 44.64588 38125 ft 462 kts 266°
2026-05-07 10:51 41.47024 44.56023 38129 ft 462 kts 266°
2026-05-07 10:52 41.46852 44.47447 38129 ft 462 kts 266°
2026-05-07 10:52 41.46673 44.38879 38140 ft 462 kts 266°
2026-05-07 10:53 41.46488 44.30321 38138 ft 462 kts 266°
2026-05-07 10:53 41.46294 44.21756 38143 ft 462 kts 266°
2026-05-07 10:54 41.46097 44.13189 38145 ft 462 kts 265°
2026-05-07 10:54 41.45893 44.04630 38145 ft 462 kts 265°
2026-05-07 10:55 41.45679 43.96057 38156 ft 464 kts 265°
2026-05-07 10:55 41.45461 43.87423 38157 ft 466 kts 265°
2026-05-07 10:56 41.45236 43.78792 38156 ft 466 kts 265°
2026-05-07 10:56 41.45005 43.70151 38158 ft 466 kts 265°
2026-05-07 10:57 41.44766 43.61508 38154 ft 466 kts 265°
2026-05-07 10:57 41.44522 43.52931 38162 ft 466 kts 265°
2026-05-07 10:58 41.44269 43.44275 38153 ft 469 kts 265°
2026-05-07 10:58 41.44010 43.35589 38149 ft 469 kts 265°
2026-05-07 10:59 41.43745 43.26895 38145 ft 469 kts 265°
2026-05-07 10:59 41.43472 43.18202 38151 ft 469 kts 265°
2026-05-07 11:00 41.43193 43.09515 38150 ft 469 kts 265°
2026-05-07 11:00 41.42906 43.00825 38157 ft 470 kts 266°
2026-05-07 11:01 41.42117 42.92176 38154 ft 471 kts 260°
2026-05-07 11:01 41.41094 42.83548 38157 ft 471 kts 259°
2026-05-07 11:02 41.40029 42.74941 38174 ft 471 kts 259°
2026-05-07 11:02 41.38959 42.66330 38180 ft 472 kts 259°
2026-05-07 11:03 41.37888 42.57715 38185 ft 472 kts 259°
2026-05-07 11:03 41.36814 42.49091 38179 ft 472 kts 259°
2026-05-07 11:04 41.35735 42.40476 38183 ft 473 kts 259°
2026-05-07 11:04 41.34644 42.31830 38193 ft 474 kts 259°
2026-05-07 11:05 41.33545 42.23173 38195 ft 475 kts 259°
2026-05-07 11:05 41.32447 42.14569 38196 ft 475 kts 259°
2026-05-07 11:06 41.31334 42.05913 38193 ft 475 kts 259°
2026-05-07 11:06 41.30214 41.97255 38200 ft 475 kts 259°
2026-05-07 11:07 41.29088 41.88607 38199 ft 474 kts 259°
2026-05-07 11:07 41.27944 41.79975 38201 ft 475 kts 259°
2026-05-07 11:08 41.26788 41.71307 38201 ft 477 kts 259°
2026-05-07 11:08 41.25625 41.62628 38198 ft 477 kts 259°
2026-05-07 11:09 41.24458 41.53958 38197 ft 477 kts 259°
2026-05-07 11:09 41.23287 41.45289 38201 ft 477 kts 259°
2026-05-07 11:10 41.22109 41.36628 38213 ft 477 kts 259°
2026-05-07 11:10 41.21125 41.29429 38214 ft 477 kts 259°
2026-05-07 11:11 41.19932 41.20754 38210 ft 478 kts 259°
2026-05-07 11:11 41.18728 41.12060 38208 ft 479 kts 259°
2026-05-07 11:12 41.17518 41.03367 38211 ft 479 kts 259°
2026-05-07 11:12 41.16301 40.94671 38210 ft 479 kts 259°
2026-05-07 11:13 41.15079 40.85987 38208 ft 479 kts 259°
2026-05-07 11:13 41.13848 40.77293 38205 ft 479 kts 259°
2026-05-07 11:14 41.12613 40.68618 38222 ft 479 kts 259°
2026-05-07 11:14 41.11368 40.59924 38207 ft 480 kts 259°
2026-05-07 11:15 41.10115 40.51227 38204 ft 481 kts 259°
2026-05-07 11:15 41.08856 40.42525 38204 ft 481 kts 259°
2026-05-07 11:16 41.07589 40.33823 38200 ft 481 kts 259°
2026-05-07 11:16 41.06316 40.25127 38201 ft 481 kts 258°
2026-05-07 11:17 41.05036 40.16433 38203 ft 481 kts 258°
2026-05-07 11:17 41.03759 40.07807 38208 ft 481 kts 258°
2026-05-07 11:18 41.02463 39.99106 38209 ft 482 kts 259°
2026-05-07 11:18 41.01161 39.90402 38211 ft 482 kts 258°
2026-05-07 11:19 40.99990 39.81678 38212 ft 482 kts 265°
2026-05-07 11:19 41.00173 39.72832 38210 ft 482 kts 275°
2026-05-07 11:20 41.00960 39.64020 38211 ft 482 kts 277°
2026-05-07 11:20 41.01837 39.55216 38214 ft 483 kts 277°
2026-05-07 11:21 41.02698 39.46392 38211 ft 483 kts 277°
2026-05-07 11:21 41.03531 39.37578 38206 ft 482 kts 277°
2026-05-07 11:22 41.04350 39.28758 38203 ft 482 kts 277°
2026-05-07 11:22 41.05160 39.19941 38202 ft 482 kts 276°
2026-05-07 11:23 41.05968 39.11117 38191 ft 482 kts 277°
2026-05-07 11:23 41.06784 39.02299 38192 ft 482 kts 277°
2026-05-07 11:24 41.07595 38.93481 38190 ft 482 kts 277°
2026-05-07 11:24 41.08398 38.84663 38194 ft 482 kts 277°
2026-05-07 11:25 41.09194 38.75839 38191 ft 482 kts 277°
2026-05-07 11:25 41.09986 38.67020 38200 ft 482 kts 277°
2026-05-07 11:26 41.10752 38.58200 38197 ft 482 kts 276°
2026-05-07 11:26 41.11489 38.49377 38203 ft 482 kts 276°
2026-05-07 11:27 41.12217 38.40537 38205 ft 482 kts 276°
2026-05-07 11:27 41.12939 38.31764 38206 ft 482 kts 276°
2026-05-07 11:28 41.13664 38.22922 38210 ft 482 kts 276°
2026-05-07 11:28 41.14387 38.14082 38206 ft 482 kts 276°
2026-05-07 11:29 41.15104 38.05237 38209 ft 482 kts 276°
2026-05-07 11:29 41.15813 37.96404 38202 ft 482 kts 276°
2026-05-07 11:30 41.16515 37.87573 38198 ft 482 kts 276°
2026-05-07 11:30 41.17255 37.78738 38194 ft 482 kts 277°
2026-05-07 11:31 41.18012 37.69909 38179 ft 481 kts 277°
2026-05-07 11:31 41.18758 37.61092 38178 ft 481 kts 277°
2026-05-07 11:32 41.19579 37.47819 38175 ft 480 kts 275°
2026-05-07 11:33 41.20210 37.38988 38175 ft 480 kts 276°
2026-05-07 11:33 41.20875 37.30166 38174 ft 480 kts 276°
2026-05-07 11:34 41.21531 37.21335 38169 ft 480 kts 276°
2026-05-07 11:34 41.22213 37.12514 38168 ft 480 kts 277°
2026-05-07 11:35 41.22899 37.03752 38165 ft 480 kts 277°
2026-05-07 11:35 41.23578 36.94927 38163 ft 480 kts 277°
2026-05-07 11:36 41.24246 36.86129 38159 ft 479 kts 277°
2026-05-07 11:36 41.24907 36.77316 38149 ft 479 kts 277°
2026-05-07 11:37 41.25560 36.68493 38159 ft 480 kts 276°
2026-05-07 11:37 41.26209 36.59657 38154 ft 480 kts 276°
2026-05-07 11:38 41.27589 36.51029 38157 ft 477 kts 288°
2026-05-07 11:38 41.29638 36.42628 38162 ft 478 kts 289°
2026-05-07 11:39 41.31787 36.34268 38165 ft 478 kts 290°
2026-05-07 11:39 41.33931 36.25916 38164 ft 477 kts 290°
2026-05-07 11:40 41.36054 36.17551 38163 ft 476 kts 289°
2026-05-07 11:40 41.38160 36.09192 38166 ft 476 kts 289°
2026-05-07 11:41 41.40256 36.00833 38160 ft 476 kts 289°
2026-05-07 11:41 41.42345 35.92477 38158 ft 475 kts 290°
2026-05-07 11:42 41.44425 35.84129 38157 ft 474 kts 290°
2026-05-07 11:42 41.46498 35.75783 38158 ft 474 kts 289°
2026-05-07 11:43 41.48548 35.67496 38158 ft 474 kts 289°
2026-05-07 11:43 41.50608 35.59145 38153 ft 474 kts 289°
2026-05-07 11:44 41.52661 35.50789 38151 ft 474 kts 289°
2026-05-07 11:44 41.54710 35.42417 38151 ft 474 kts 289°
2026-05-07 11:45 41.56748 35.34060 38151 ft 473 kts 290°
2026-05-07 11:45 41.58776 35.25713 38141 ft 472 kts 290°
2026-05-07 11:46 41.60793 35.17382 38141 ft 471 kts 290°
2026-05-07 11:46 41.62804 35.09055 38136 ft 471 kts 290°
2026-05-07 11:47 41.64805 35.00726 38130 ft 470 kts 290°
2026-05-07 11:47 41.66801 34.92398 38132 ft 470 kts 290°
2026-05-07 11:48 41.68787 34.84081 38132 ft 470 kts 290°
2026-05-07 11:48 41.70767 34.75758 38124 ft 470 kts 290°
2026-05-07 11:49 41.72741 34.67426 38126 ft 470 kts 290°
2026-05-07 11:49 41.74711 34.59084 38128 ft 470 kts 289°
2026-05-07 11:50 41.76680 34.50738 38127 ft 470 kts 289°
2026-05-07 11:50 41.78631 34.42395 38121 ft 470 kts 289°
2026-05-07 11:51 41.80581 34.34037 38131 ft 470 kts 289°
2026-05-07 11:51 41.82517 34.25719 38135 ft 471 kts 289°
2026-05-07 11:52 41.84459 34.17339 38129 ft 470 kts 289°
2026-05-07 11:52 41.86395 34.08950 38133 ft 471 kts 289°
2026-05-07 11:53 41.88328 34.00547 38146 ft 471 kts 289°
2026-05-07 11:53 41.90254 33.92139 38140 ft 471 kts 289°
2026-05-07 11:54 41.92173 33.83728 38149 ft 471 kts 289°
2026-05-07 11:54 41.94088 33.75308 38147 ft 471 kts 289°
2026-05-07 11:55 41.95972 33.66884 38135 ft 471 kts 288°
2026-05-07 11:55 41.97620 33.58355 38144 ft 472 kts 286°
2026-05-07 11:56 41.99202 33.49789 38152 ft 472 kts 286°
2026-05-07 11:56 42.00804 33.41257 38150 ft 470 kts 287°
2026-05-07 11:57 42.02416 33.32779 38154 ft 467 kts 287°
2026-05-07 11:57 42.04025 33.24313 38159 ft 467 kts 287°
2026-05-07 11:58 42.05627 33.15848 38156 ft 467 kts 287°
2026-05-07 11:58 42.07219 33.07394 38159 ft 466 kts 287°
2026-05-07 11:59 42.08883 32.99037 38160 ft 465 kts 288°
2026-05-07 11:59 42.10626 32.90657 38162 ft 465 kts 288°
2026-05-07 12:00 42.12356 32.82272 38157 ft 465 kts 288°
2026-05-07 12:00 42.14061 32.73890 38165 ft 464 kts 288°
2026-05-07 12:01 42.15468 32.66921 38165 ft 463 kts 288°
2026-05-07 12:01 42.17155 32.58536 38162 ft 464 kts 287°
2026-05-07 12:02 42.18833 32.50145 38162 ft 464 kts 287°
2026-05-07 12:02 42.20505 32.41740 38159 ft 464 kts 287°
2026-05-07 12:03 42.22169 32.33341 38159 ft 464 kts 287°
2026-05-07 12:03 42.23829 32.24935 38156 ft 464 kts 287°
2026-05-07 12:04 42.25487 32.16525 38157 ft 464 kts 287°
2026-05-07 12:04 42.27131 32.08119 38156 ft 463 kts 287°
2026-05-07 12:05 42.28770 31.99707 38157 ft 463 kts 287°
2026-05-07 12:05 42.30404 31.91298 38156 ft 463 kts 287°
2026-05-07 12:06 42.32035 31.82881 38153 ft 462 kts 287°
2026-05-07 12:06 42.33653 31.74494 38153 ft 461 kts 287°
2026-05-07 12:07 42.35265 31.66105 38155 ft 460 kts 287°
2026-05-07 12:07 42.36865 31.57745 38157 ft 459 kts 287°
2026-05-07 12:08 42.38458 31.49382 38155 ft 459 kts 287°
2026-05-07 12:08 42.40042 31.41030 38156 ft 458 kts 287°
2026-05-07 12:09 42.41622 31.32669 38156 ft 458 kts 287°
2026-05-07 12:09 42.43194 31.24309 38154 ft 458 kts 287°
2026-05-07 12:10 42.44759 31.15950 38166 ft 458 kts 287°
2026-05-07 12:10 42.46321 31.07588 38160 ft 458 kts 287°
2026-05-07 12:11 42.47861 30.99284 38150 ft 458 kts 286°
2026-05-07 12:11 42.49411 30.90863 38166 ft 458 kts 286°
2026-05-07 12:12 42.50936 30.82547 38162 ft 457 kts 286°
2026-05-07 12:12 42.52466 30.74180 38144 ft 457 kts 286°
2026-05-07 12:13 42.53990 30.65808 38161 ft 457 kts 286°
2026-05-07 12:13 42.55508 30.57428 38160 ft 457 kts 286°
2026-05-07 12:14 42.57019 30.49051 38152 ft 457 kts 286°
2026-05-07 12:14 42.58525 30.40669 38159 ft 457 kts 286°
2026-05-07 12:15 42.60039 30.32299 38148 ft 456 kts 288°
2026-05-07 12:15 42.62481 30.24421 38154 ft 452 kts 302°
2026-05-07 12:16 42.66103 30.17449 38162 ft 452 kts 308°
2026-05-07 12:16 42.69938 30.10697 38158 ft 451 kts 308°
2026-05-07 12:17 42.73800 30.03958 38156 ft 451 kts 308°
2026-05-07 12:17 42.77612 29.97242 38145 ft 451 kts 308°
2026-05-07 12:18 42.81428 29.90472 38154 ft 450 kts 308°
2026-05-07 12:18 42.85229 29.83702 38160 ft 450 kts 308°
2026-05-07 12:19 42.89029 29.76922 38158 ft 450 kts 308°
2026-05-07 12:19 42.92821 29.70141 38152 ft 449 kts 308°
2026-05-07 12:20 42.96601 29.63365 38159 ft 449 kts 308°
2026-05-07 12:20 43.00392 29.56557 38155 ft 451 kts 308°
2026-05-07 12:21 43.04182 29.49733 38156 ft 451 kts 308°
2026-05-07 12:21 43.07968 29.42902 38158 ft 451 kts 308°
2026-05-07 12:22 43.11748 29.36065 38158 ft 451 kts 308°
2026-05-07 12:22 43.15523 29.29220 38156 ft 451 kts 308°
2026-05-07 12:23 43.19297 29.22364 38157 ft 451 kts 308°
2026-05-07 12:23 43.23058 29.15512 38156 ft 448 kts 308°
2026-05-07 12:24 43.26801 29.08681 38152 ft 448 kts 308°
2026-05-07 12:24 43.30541 29.01836 38156 ft 448 kts 308°
2026-05-07 12:25 43.34273 28.94993 38141 ft 447 kts 308°
2026-05-07 12:25 43.37990 28.88159 38160 ft 446 kts 307°
2026-05-07 12:26 43.41706 28.81314 38147 ft 448 kts 307°
2026-05-07 12:26 43.45433 28.74430 38141 ft 448 kts 307°
2026-05-07 12:27 43.49153 28.67544 38136 ft 448 kts 307°
2026-05-07 12:27 43.52856 28.60672 38136 ft 446 kts 307°
2026-05-07 12:28 43.56548 28.53805 38127 ft 446 kts 307°
2026-05-07 12:28 43.60240 28.46923 38123 ft 446 kts 307°
2026-05-07 12:29 43.63899 28.40087 38128 ft 445 kts 307°
2026-05-07 12:29 43.67573 28.33206 38113 ft 445 kts 307°
2026-05-07 12:30 43.71241 28.26318 38105 ft 445 kts 307°
2026-05-07 12:30 43.74907 28.19419 38107 ft 445 kts 307°
2026-05-07 12:31 43.78565 28.12519 38100 ft 444 kts 306°
2026-05-07 12:31 43.80391 28.09068 38235 ft 445 kts 307°
2026-05-07 12:31 43.82220 28.05606 38353 ft 445 kts 307°
2026-05-07 12:31 43.84047 28.02147 38536 ft 445 kts 307°
2026-05-07 12:32 43.85871 27.98689 38691 ft 445 kts 307°
2026-05-07 12:32 43.87696 27.95225 38824 ft 445 kts 306°
2026-05-07 12:32 43.89522 27.91755 38917 ft 445 kts 306°
2026-05-07 12:32 43.91341 27.88294 39047 ft 444 kts 306°
2026-05-07 12:33 43.94975 27.81366 39235 ft 445 kts 306°
2026-05-07 12:33 43.98614 27.74410 39402 ft 445 kts 306°
2026-05-07 12:34 44.02250 27.67446 39560 ft 446 kts 306°
2026-05-07 12:34 44.05896 27.60447 39711 ft 447 kts 305°
2026-05-07 12:35 44.09539 27.53434 39859 ft 447 kts 305°
2026-05-07 12:35 44.13154 27.46459 40019 ft 448 kts 305°
2026-05-07 12:36 44.16801 27.39405 40054 ft 450 kts 305°
2026-05-07 12:36 44.20465 27.32302 40048 ft 452 kts 304°
2026-05-07 12:37 44.24132 27.25174 40048 ft 452 kts 304°
2026-05-07 12:37 44.27793 27.18040 40045 ft 452 kts 304°
2026-05-07 12:38 44.31452 27.10895 40048 ft 452 kts 304°
2026-05-07 12:38 44.35108 27.03738 40046 ft 454 kts 304°
2026-05-07 12:39 44.38772 26.96545 40043 ft 454 kts 304°
2026-05-07 12:39 44.42434 26.89341 40042 ft 454 kts 304°
2026-05-07 12:40 44.46090 26.82129 40040 ft 454 kts 304°
2026-05-07 12:40 44.49740 26.74910 40042 ft 454 kts 304°
2026-05-07 12:41 44.53387 26.67681 40042 ft 454 kts 304°
2026-05-07 12:41 44.57028 26.60446 40040 ft 454 kts 304°
2026-05-07 12:42 44.60650 26.53182 40033 ft 454 kts 302°
2026-05-07 12:42 44.64074 26.45707 40044 ft 456 kts 301°
2026-05-07 12:43 44.67433 26.38163 40034 ft 455 kts 301°
2026-05-07 12:43 44.70789 26.30692 40034 ft 455 kts 301°
2026-05-07 12:44 44.74182 26.23187 40041 ft 455 kts 301°
2026-05-07 12:44 44.77592 26.15643 40042 ft 458 kts 301°
2026-05-07 12:45 44.81005 26.08073 40040 ft 458 kts 301°
2026-05-07 12:45 44.84435 26.00442 40038 ft 458 kts 301°
2026-05-07 12:46 44.87836 25.92855 40038 ft 459 kts 301°
2026-05-07 12:46 44.91222 25.85277 40038 ft 460 kts 301°
2026-05-07 12:47 44.94077 25.78875 40034 ft 460 kts 301°
2026-05-07 12:47 44.98036 25.69972 40037 ft 460 kts 300°
2026-05-07 12:48 45.01437 25.62304 40035 ft 461 kts 300°
2026-05-07 12:48 45.04289 25.55855 40040 ft 462 kts 300°
2026-05-07 12:49 45.07694 25.48137 40040 ft 462 kts 300°
2026-05-07 12:49 45.11088 25.40422 40039 ft 462 kts 300°
2026-05-07 12:50 45.14461 25.32737 40040 ft 462 kts 300°
2026-05-07 12:50 45.17851 25.24991 40039 ft 463 kts 300°
2026-05-07 12:51 45.21238 25.17230 40040 ft 463 kts 300°
2026-05-07 12:51 45.24624 25.09451 40035 ft 463 kts 300°
2026-05-07 12:52 45.28004 25.01665 40043 ft 463 kts 299°
2026-05-07 12:52 45.31372 24.93882 40039 ft 463 kts 299°
2026-05-07 12:53 45.34741 24.86078 40041 ft 463 kts 299°
2026-05-07 12:53 45.38101 24.78272 40038 ft 463 kts 299°
2026-05-07 12:54 45.41462 24.70442 40037 ft 465 kts 299°
2026-05-07 12:54 45.44827 24.62578 40024 ft 465 kts 299°
2026-05-07 12:55 45.48190 24.54700 40032 ft 465 kts 298°
2026-05-07 12:55 45.51547 24.46811 40028 ft 466 kts 299°
2026-05-07 12:56 45.54906 24.38898 40029 ft 467 kts 298°
2026-05-07 12:56 45.58261 24.30972 40025 ft 467 kts 298°
2026-05-07 12:57 45.61610 24.23039 40017 ft 466 kts 298°
2026-05-07 12:57 45.64911 24.15081 40031 ft 465 kts 296°
2026-05-07 12:58 45.67774 24.06801 40024 ft 465 kts 292°
2026-05-07 12:58 45.70511 23.98423 40019 ft 465 kts 293°
2026-05-07 12:59 45.73305 23.90062 40023 ft 466 kts 293°
2026-05-07 12:59 45.76143 23.81723 40021 ft 465 kts 294°
2026-05-07 13:00 45.78983 23.73399 40023 ft 465 kts 293°
2026-05-07 13:00 45.82083 23.65234 40023 ft 467 kts 298°
2026-05-07 13:01 45.85487 23.57300 40020 ft 467 kts 299°
2026-05-07 13:01 45.88853 23.49387 40032 ft 468 kts 298°
2026-05-07 13:02 45.92201 23.41312 40021 ft 467 kts 297°
2026-05-07 13:02 45.95474 23.33319 40022 ft 467 kts 297°
2026-05-07 13:03 45.98762 23.25253 40017 ft 467 kts 297°
2026-05-07 13:03 46.02044 23.17186 40028 ft 467 kts 297°
2026-05-07 13:04 46.05318 23.09120 40012 ft 466 kts 297°
2026-05-07 13:04 46.08586 23.01052 40019 ft 467 kts 297°
2026-05-07 13:05 46.11854 22.92953 40043 ft 467 kts 297°
2026-05-07 13:05 46.15111 22.84853 40035 ft 467 kts 297°
2026-05-07 13:06 46.18366 22.76741 40033 ft 467 kts 297°
2026-05-07 13:06 46.21615 22.68619 40033 ft 467 kts 297°
2026-05-07 13:07 46.24856 22.60491 40035 ft 467 kts 296°
2026-05-07 13:07 46.28095 22.52347 40042 ft 467 kts 296°
2026-05-07 13:08 46.31335 22.44175 40032 ft 469 kts 296°
2026-05-07 13:08 46.34568 22.35997 40034 ft 468 kts 296°
2026-05-07 13:09 46.37798 22.27803 40033 ft 468 kts 296°
2026-05-07 13:09 46.41018 22.19612 39634 ft 466 kts 296°
2026-05-07 13:10 46.42615 22.15542 39129 ft 463 kts 296°
2026-05-07 13:10 46.44205 22.11479 38489 ft 463 kts 295°
2026-05-07 13:10 46.45792 22.07419 37823 ft 462 kts 295°
2026-05-07 13:10 46.47351 22.03424 37199 ft 460 kts 295°
2026-05-07 13:11 46.48941 21.99342 36600 ft 458 kts 296°
2026-05-07 13:11 46.50482 21.95381 35979 ft 457 kts 296°
2026-05-07 13:11 46.52041 21.91369 35340 ft 456 kts 295°
2026-05-07 13:11 46.53599 21.87350 34668 ft 457 kts 295°
2026-05-07 13:12 46.55159 21.83322 33920 ft 459 kts 295°
2026-05-07 13:12 46.56725 21.79268 33127 ft 461 kts 295°
2026-05-07 13:12 46.58297 21.75198 32348 ft 462 kts 295°
2026-05-07 13:12 46.59868 21.71123 31593 ft 463 kts 295°
2026-05-07 13:13 46.61444 21.67033 30797 ft 465 kts 295°
2026-05-07 13:13 46.63025 21.62921 29971 ft 467 kts 295°
2026-05-07 13:13 46.64604 21.58809 29379 ft 463 kts 295°
2026-05-07 13:13 46.66166 21.54745 28818 ft 458 kts 295°
2026-05-07 13:14 46.67711 21.50715 28249 ft 454 kts 295°
2026-05-07 13:14 46.69242 21.46714 27677 ft 450 kts 295°
2026-05-07 13:14 46.70756 21.42748 27118 ft 446 kts 295°
2026-05-07 13:14 46.72256 21.38813 26570 ft 442 kts 295°
2026-05-07 13:15 46.73742 21.34908 26016 ft 439 kts 295°
2026-05-07 13:15 46.75215 21.31030 25474 ft 435 kts 295°
2026-05-07 13:15 46.76674 21.27183 24931 ft 432 kts 295°
2026-05-07 13:15 46.78121 21.23363 24401 ft 429 kts 295°
2026-05-07 13:16 46.79557 21.19568 23865 ft 426 kts 295°
2026-05-07 13:16 46.80984 21.15789 23283 ft 424 kts 295°
2026-05-07 13:16 46.82398 21.12041 22729 ft 419 kts 295°
2026-05-07 13:16 46.83797 21.08332 22185 ft 414 kts 295°
2026-05-07 13:17 46.85125 21.04649 21804 ft 405 kts 291°
2026-05-07 13:17 46.86300 21.00915 20973 ft 407 kts 290°
2026-05-07 13:17 46.87455 20.97082 20013 ft 415 kts 290°
2026-05-07 13:17 46.88587 20.93273 19449 ft 412 kts 290°
2026-05-07 13:18 46.89732 20.89401 18933 ft 407 kts 290°
2026-05-07 13:18 46.90831 20.85666 18432 ft 403 kts 290°
2026-05-07 13:18 46.91932 20.81913 17876 ft 400 kts 290°
2026-05-07 13:18 46.93020 20.78196 17349 ft 395 kts 290°
2026-05-07 13:19 46.94091 20.74527 16845 ft 390 kts 290°
2026-05-07 13:19 46.95147 20.70904 16345 ft 385 kts 290°
2026-05-07 13:19 46.96190 20.67319 15850 ft 381 kts 290°
2026-05-07 13:19 46.97222 20.63766 15354 ft 379 kts 290°
2026-05-07 13:20 46.98250 20.60222 14853 ft 377 kts 290°
2026-05-07 13:20 46.99269 20.56702 14360 ft 374 kts 290°
2026-05-07 13:20 47.00281 20.53205 13866 ft 372 kts 290°
2026-05-07 13:20 47.01286 20.49724 13330 ft 370 kts 290°
2026-05-07 13:21 47.02283 20.46268 12840 ft 367 kts 290°
2026-05-07 13:21 47.03273 20.42831 12347 ft 364 kts 291°
2026-05-07 13:21 47.04253 20.39426 11865 ft 361 kts 291°
2026-05-07 13:21 47.05224 20.36045 11379 ft 359 kts 290°
2026-05-07 13:22 47.06189 20.32681 10903 ft 356 kts 290°
2026-05-07 13:22 47.07134 20.29387 10747 ft 343 kts 291°
2026-05-07 13:22 47.08043 20.26218 10626 ft 331 kts 290°
2026-05-07 13:22 47.08919 20.23155 10499 ft 320 kts 290°
2026-05-07 13:23 47.09761 20.20204 10365 ft 308 kts 290°
2026-05-07 13:23 47.10571 20.17356 10228 ft 296 kts 290°
2026-05-07 13:23 47.11350 20.14620 10140 ft 285 kts 290°
2026-05-07 13:23 47.12101 20.11983 9939 ft 277 kts 290°
2026-05-07 13:24 47.12851 20.09332 9650 ft 285 kts 289°
2026-05-07 13:24 47.13614 20.06631 9339 ft 287 kts 289°
2026-05-07 13:24 47.14377 20.03936 9037 ft 285 kts 290°
2026-05-07 13:24 47.15136 20.01251 8748 ft 284 kts 290°
2026-05-07 13:25 47.15892 19.98585 8461 ft 282 kts 290°
2026-05-07 13:25 47.16643 19.95925 8176 ft 281 kts 290°
2026-05-07 13:25 47.17391 19.93277 7887 ft 280 kts 289°
2026-05-07 13:25 47.18135 19.90637 7603 ft 279 kts 289°
2026-05-07 13:26 47.18873 19.88014 7322 ft 277 kts 289°
2026-05-07 13:26 47.19608 19.85404 7040 ft 275 kts 289°
2026-05-07 13:26 47.20338 19.82807 6739 ft 275 kts 289°
2026-05-07 13:26 47.21065 19.80213 6467 ft 274 kts 289°
2026-05-07 13:27 47.21788 19.77637 6186 ft 272 kts 289°
2026-05-07 13:27 47.22505 19.75076 5923 ft 269 kts 289°
2026-05-07 13:27 47.23193 19.72621 5734 ft 258 kts 289°
2026-05-07 13:27 47.23869 19.70206 5425 ft 253 kts 289°
2026-05-07 13:28 47.24533 19.67822 5118 ft 250 kts 289°
2026-05-07 13:28 47.25136 19.65460 4856 ft 243 kts 281°
2026-05-07 13:28 47.25099 19.63045 4600 ft 235 kts 250°
2026-05-07 13:28 47.24399 19.60901 4342 ft 233 kts 237°
2026-05-07 13:29 47.23448 19.58984 4097 ft 232 kts 227°
2026-05-07 13:29 47.22352 19.57238 3989 ft 232 kts 226°
2026-05-07 13:29 47.21229 19.55531 3983 ft 233 kts 225°
2026-05-07 13:29 47.20115 19.53800 3985 ft 233 kts 229°
2026-05-07 13:30 47.19258 19.51812 3989 ft 227 kts 246°
2026-05-07 13:30 47.18942 19.49586 3971 ft 223 kts 270°
2026-05-07 13:30 47.19335 19.47306 3989 ft 239 kts 296°
2026-05-07 13:30 47.20503 19.45560 3983 ft 247 kts 330°
2026-05-07 13:31 47.22193 19.45145 3986 ft 253 kts
2026-05-07 13:31 47.23845 19.46057 3990 ft 256 kts 26°
2026-05-07 13:31 47.25439 19.47245 3988 ft 257 kts 25°
2026-05-07 13:31 47.27049 19.48352 3981 ft 250 kts 23°
2026-05-07 13:32 47.28648 19.48971 3970 ft 228 kts 354°
2026-05-07 13:32 47.30099 19.48400 3971 ft 207 kts 334°
2026-05-07 13:32 47.31265 19.47315 3797 ft 194 kts 311°
2026-05-07 13:32 47.32137 19.45836 3490 ft 190 kts 305°
2026-05-07 13:33 47.32988 19.44375 3189 ft 190 kts 309°
2026-05-07 13:33 47.33895 19.42938 2913 ft 187 kts 310°
2026-05-07 13:33 47.34765 19.41541 2685 ft 181 kts 308°
2026-05-07 13:33 47.35612 19.40172 2429 ft 183 kts 308°
2026-05-07 13:34 47.36453 19.38819 2176 ft 178 kts 308°
2026-05-07 13:34 47.38033 19.36272 1728 ft 159 kts 308°
2026-05-07 13:34 47.38763 19.35092 1519 ft 152 kts 308°
2026-05-07 13:35 47.39239 19.34324 1378 ft 148 kts 307°
2026-05-07 13:35 47.39915 19.33214 1195 ft 144 kts 307°
2026-05-07 13:35 47.40590 19.32129 1009 ft 143 kts 308°
2026-05-07 13:35 47.41483 19.30711 747 ft 142 kts 308°
2026-05-07 13:36 47.42150 19.29631 567 ft 143 kts 307°
2026-05-07 13:36 47.42815 19.28562 459 ft 135 kts 311°
2026-05-07 13:36 47.43197 19.27924 462 ft 111 kts 313°
2026-05-07 13:36 47.43641 19.27216 472 ft 77 kts 313°
2026-05-07 13:37 47.43923 19.26761 474 ft 43 kts 311°
2026-05-07 13:37 47.44065 19.26517 469 ft 23 kts 297°
2026-05-07 13:37 47.44030 19.26308 464 ft 19 kts 226°
2026-05-07 13:37 47.43935 19.26180 464 ft 19 kts 222°
2026-05-07 13:38 47.43837 19.26048 464 ft 20 kts 222°
2026-05-07 13:38 47.43732 19.25908 463 ft 20 kts 222°
2026-05-07 13:38 47.43627 19.25767 463 ft 21 kts 222°
2026-05-07 13:38 47.43518 19.25621 463 ft 21 kts 222°
2026-05-07 13:39 47.43424 19.25495 463 ft 17 kts 222°
2026-05-07 13:39 47.43366 19.25430 463 ft 9 kts 193°
2026-05-07 13:39 47.43316 19.25477 463 ft 10 kts 133°
2026-05-07 13:39 47.43266 19.25556 463 ft 10 kts 133°
2026-05-07 13:40 47.43240 19.25623 463 ft 5 kts 79°
2026-05-07 13:40 47.43268 19.25663 463 ft 6 kts 42°
2026-05-07 13:40 47.43292 19.25696 463 ft 3 kts 42°
2026-05-07 13:40 47.43301 19.25707 463 ft 1 kts 42°
2026-05-07 13:41 47.43303 19.25711 463 ft 1 kts 42°
2026-05-07 13:41 47.43306 19.25715 463 ft 0 kts 43°